HAL Airport
VOBG : now visible

Airfield :











YOU CAN JOIN US ON...

 
LOGIN :

Register | Disclaimer

   EN    FR    IT 

 









Legend :    VFR   Marginal VFR   IFR   Intensive IFR   Very Intensive IFR
Visi :
Ceiling :
>= 8 km
>= 3000ft
5 to 8 km
1000 to 3000 ft
1500m to 5 km
500 to 1000 ft
800 to 1500m
200 to 500 ft
< 800m
< 200 ft
Symbols :   Thunderstorms  Fog  Heavy snow  Heavy precipitations  Wind > 20 kt






- Airport Elevation : 2912 ft


VOBG - HAL

CURRENT METAR :
  • 270330Z 27006KT 4000 BR SCT008 SCT012 BKN080 23/21 Q1015 NOSIG

EXPIRED METARs :
  • 270300Z 27005KT 4000 BR SCT008 SCT012 BKN080 23/21 Q1015 NOSIG
  • 270230Z 26005KT 4000 BR SCT008 SCT012 BKN080 23/21 Q1015 NOSIG
  • 270200Z 26005KT 4000 BR SCT008 SCT012 BKN080 22/21 Q1014 NOSIG
  • 270130Z 26003KT 4000 BR FEW008 SCT012 BKN080 21/20 Q1014 NOSIG
  • 270100Z 26003KT 4000 BR FEW008 SCT012 BKN080 21/20 Q1013 NOSIG

TAF TAF VOBG
Valid from the 27 at 03:00 until the 27 at 12:00 UTC


270200Z 2703/2712 27010KT 6000 SCT012 SCT080
TEMPO 2709/2712 4000 RA DZ SCT008 SCT012 FEW025CB BKN080
VOMF FIR / Asia



MET'MAP, your aeronautical weather chart ! - Copyright ORBIFLY December 2007 - Disclaimer

ORBIFLY MET'MAP TEAM :

Programming & Development : Alexandra Zaïnal
Concept & original design : Baudouin d'Aumeries
Assistance for programming : Marc-Olivier Méhu
Technical & hardware support : Manuel Goepfert

Contact : metmap@orbifly.com




SOURCES & CREDITS :

   NOAA       Earth
Advisory